sat.trackr.live / text

‹ back to catalog

STARLINK-34192

NORAD 64014 · 2025-101W

PAYLOAD ACTIVE UNKNOWN

§ Identity

Operator
Country
US
Launch date
2025-05-14
Launch site
AFETR
Launch vehicle
Mass (kg)
RCS (m²)

Purposes: comms

External: N2YO · Heavens-Above · Gunter

§ Orbital elements

Epoch: 2026-09-20T05:34:05.071296Z

Period
94.27 min
Inclination
43.0022°
Eccentricity
0.0001431
Mean motion
15.27582077 rev/d
Perigee alt
482.1 km
Apogee alt
484.0 km
Semi-major
6,861.2 km
B*
3.7263e-4
RAAN
339.6625°
Arg perigee
277.9334°
Mean anomaly
82.1355°
Rev number
7,680

§ Raw data

STARLINK-341921 64014U 25101W   26263.23200314  .00010007  00000+0  37263-3 0  99992 64014  43.0022 339.6625 0001431 277.9334  82.1355 15.27582077 76805

JSON: /api/v1/satellites/64014 · /tle

For live sub-satellite position, see the globe view (requires WebGL).

§ Visibility from observer

Set your observer location to see the next 7 days of passes ≥ 10°. The values pass through the URL so the page stays shareable.

No JS? Fill the form by hand. The geolocation button needs JavaScript.